STARLINK-33850, 63679

Orbit data source: Space-Track

STARLINK-33850, 63679 is a payload satellite owned by SpaceX/Seattle (US) in LEO that was launched on Mon, 28 Apr 2025 UTC via an FALCON 9 launch vehicle from the Air Force Eastern Test Range (AFETR). Payload-class satellites include a variety of spacecraft equipped with specific instruments for various scientific and technological missions. These include communications satellites like Starlink; space stations such as the ISS; scientific satellites like the Hubble; Earth observation satellites from companies like Planet Labs, Umbra, and HawkEye 360; GPS; miniature CubeSats for education and research; and military/defense satellites.

Loading next visibility...
Identifier
63679, 2025-085R
Orbit
LEO
Country
Flag of USUS
Related business
Manufacturer
SpaceX/Seattle
Mission
Operational Commercial Communications
Bus & Motor
STARLINK V2MO, Unknown motor
Mass
575 kg wet, ~530 kg dry
Launch date (UTC)
2025-04-28 (1 year ago)
Launch vehicle
FALCON 9
Launch site
Air Force Eastern Test Range (AFETR)
Object type
Payload
Rocket body
Debris
Shape & HBR
Box + 2 Pan, 17.7 m
Radar Cross Section
36.964 m², Large (>1 m²)

Expand to show TLE details & history
Last TLE update: 13 hours ago

TLE from 13 hours ago
0 STARLINK-33850
1 63679U 25085R   26171.30224458  .00009747  00000-0  36314-3 0  9993
2 63679  42.9983 171.3725 0000699 259.0592 101.0181 15.27588633 64550
Epoch: 2026-06-20T07:15Z
TLE epoch observation values (Epoch: 2026-06-20T07:15:13.931Z)
Latitude
-0.00003°
Longitude
154.04561°
Altitude
482.89 km
Speed
7.626 km/s
True Right ascension
11h 25m 29s
True Declination
0° 00' 00"
Sunlit
Object was in daylight at epoch
Visualization orbit readout
Latitude
Unknown
Longitude
Unknown
Altitude
Unknown
Speed
Unknown
Apparent Right ascension
Unknown
Apparent Declination
Unknown
Sunlit
N/A
Visualization observer readout
Local Sidereal Time
07:16:47
Azimuth
Unknown
Elevation
Unknown
Doppler factor
Unknown
Orbital elements
Apogee altitude
485.448 km
Perigee altitude
484.489 km
Semi-major axis
6,863.106 km
Eccentricity
0.00007
Inclination
42.9983°
RAAN
171.3725°
Arg. of periapsis
259.0592°
True anomaly
101.02596°
Mean anomaly
101.0181°
Eccentric anomaly
101.02203°
Mean motion
3.81735 °/min
Orbital period
94.31 mins
BSTAR
0.00036314
Loading maneuver chart data...
Computing Atmospheric mass density...
Loading historical data...
Loading historical data...
Loading historical data...
Loading historical data...
Loading historical data...
Loading historical data...
Loading historical data...

Documentation

Showing up to 5 results
|